Time,TemperatureF,DewpointF,PressureIn,WindDirection,WindDirectionDegrees,WindSpeedMPH,WindSpeedGustMPH,Humidity,HourlyPrecipIn,Conditions,Clouds,dailyrainin,SoftwareType,DateUTC
2013-03-14 07:00:00,32.2,18.3,30.19,SW,225,0.9,0.9,56,0.00,,,0.00,WUHU216HW,2013-03-14 11:00:00,
2013-03-14 07:05:00,32.2,18.3,30.19,WSW,248,1.1,1.1,56,0.00,,,0.00,WUHU216HW,2013-03-14 11:05:00,
2013-03-14 07:30:00,31.9,17.9,30.20,WNW,293,1.1,1.1,56,0.00,,,0.00,WUHU216HW,2013-03-14 11:30:00,
2013-03-14 07:35:00,31.9,17.9,30.20,WNW,293,1.1,1.1,56,0.00,,,0.00,WUHU216HW,2013-03-14 11:35:00,
2013-03-14 08:00:00,32.0,18.1,30.22,West,270,0.4,0.4,56,0.00,,,0.00,WUHU216HW,2013-03-14 12:00:00,
2013-03-14 08:05:00,32.0,18.1,30.22,West,270,0.4,0.4,56,0.00,,,0.00,WUHU216HW,2013-03-14 12:05:00,
2013-03-14 08:30:00,33.7,19.5,30.23,NW,315,1.1,1.1,56,0.00,,,0.00,WUHU216HW,2013-03-14 12:30:00,
2013-03-14 08:35:00,33.7,19.5,30.23,NW,315,1.1,1.1,56,0.00,,,0.00,WUHU216HW,2013-03-14 12:35:00,
2013-03-14 09:00:00,35.3,19.8,30.24,WSW,248,0.9,0.9,53,0.00,,,0.00,WUHU216HW,2013-03-14 13:00:00,
2013-03-14 09:05:00,35.3,19.8,30.24,WSW,248,0.9,0.9,53,0.00,,,0.00,WUHU216HW,2013-03-14 13:05:00,
2013-03-14 09:30:00,37.4,20.0,30.24,NW,315,3.8,3.8,49,0.00,,,0.00,WUHU216HW,2013-03-14 13:30:00,
2013-03-14 09:35:00,37.4,20.0,30.24,NW,315,3.8,3.8,49,0.00,,,0.00,WUHU216HW,2013-03-14 13:35:00,
2013-03-14 09:59:00,38.7,19.1,30.24,NW,315,4.7,4.7,45,0.00,,,0.00,WUHU216HW,2013-03-14 13:59:00,
2013-03-14 10:00:00,38.7,19.1,30.24,NW,315,4.7,4.7,45,0.00,,,0.00,WUHU216HW,2013-03-14 14:00:00,
2013-03-14 10:06:00,38.7,19.1,30.24,NW,315,4.7,4.7,45,0.00,,,0.00,WUHU216HW,2013-03-14 14:06:00,
2013-03-14 10:30:00,39.8,19.5,30.25,NNW,338,7.4,7.4,44,0.00,,,0.00,WUHU216HW,2013-03-14 14:30:00,
2013-03-14 10:35:00,39.8,19.5,30.25,NNW,338,7.4,7.4,44,0.00,,,0.00,WUHU216HW,2013-03-14 14:35:00,
2013-03-14 10:59:00,41.0,19.6,30.24,North,0,3.8,3.8,42,0.00,,,0.00,WUHU216HW,2013-03-14 14:59:00,
2013-03-14 11:00:00,41.0,19.6,30.24,North,0,3.8,3.8,42,0.00,,,0.00,WUHU216HW,2013-03-14 15:00:00,
2013-03-14 11:05:00,41.0,19.6,30.24,North,0,3.8,3.8,42,0.00,,,0.00,WUHU216HW,2013-03-14 15:05:00,
2013-03-14 11:30:00,42.3,19.7,30.24,West,270,2.5,2.5,40,0.00,,,0.00,WUHU216HW,2013-03-14 15:30:00,
2013-03-14 11:35:00,42.3,19.7,30.24,West,270,2.5,2.5,40,0.00,,,0.00,WUHU216HW,2013-03-14 15:35:00,
2013-03-14 11:59:00,42.8,19.5,30.24,NNE,23,1.6,1.6,39,0.00,,,0.00,WUHU216HW,2013-03-14 15:59:00,
2013-03-14 12:00:00,42.8,19.5,30.24,NNE,23,1.6,1.6,39,0.00,,,0.00,WUHU216HW,2013-03-14 16:00:00,
2013-03-14 12:05:00,42.8,19.5,30.24,NNE,23,1.6,1.6,39,0.00,,,0.00,WUHU216HW,2013-03-14 16:05:00,
2013-03-14 12:30:00,45.2,21.0,30.23,NNW,338,2.2,2.2,38,0.00,,,0.00,WUHU216HW,2013-03-14 16:30:00,
2013-03-14 12:35:00,45.2,21.0,30.23,NNW,338,2.2,2.2,38,0.00,,,0.00,WUHU216HW,2013-03-14 16:35:00,
2013-03-14 13:00:00,46.4,21.4,30.21,NW,315,1.1,1.1,37,0.00,,,0.00,WUHU216HW,2013-03-14 17:00:00,
2013-03-14 13:05:00,46.4,21.4,30.21,NW,315,1.1,1.1,37,0.00,,,0.00,WUHU216HW,2013-03-14 17:05:00,
2013-03-14 13:30:00,47.2,21.4,30.19,SW,225,0.4,0.4,36,0.00,,,0.00,WUHU216HW,2013-03-14 17:30:00,
2013-03-14 13:35:00,47.2,21.4,30.19,SW,225,0.4,0.4,36,0.00,,,0.00,WUHU216HW,2013-03-14 17:35:00,
2013-03-14 14:00:00,48.8,20.8,30.18,North,0,3.6,3.6,33,0.00,,,0.00,WUHU216HW,2013-03-14 18:00:00,
2013-03-14 14:05:00,48.8,20.8,30.18,North,0,3.6,3.6,33,0.00,,,0.00,WUHU216HW,2013-03-14 18:05:00,
2013-03-14 14:30:00,50.0,22.5,30.17,NW,315,1.6,1.6,34,0.00,,,0.00,WUHU216HW,2013-03-14 18:30:00,
2013-03-14 14:35:00,50.0,22.5,30.17,NW,315,1.6,1.6,34,0.00,,,0.00,WUHU216HW,2013-03-14 18:35:00,
2013-03-14 15:00:00,51.8,22.8,30.16,North,0,2.0,2.0,32,0.00,,,0.00,WUHU216HW,2013-03-14 19:00:00,
2013-03-14 15:05:00,51.8,22.8,30.16,North,0,2.0,2.0,32,0.00,,,0.00,WUHU216HW,2013-03-14 19:05:00,
2013-03-14 15:30:00,53.6,23.8,30.15,NW,315,0.2,0.2,31,0.00,,,0.00,WUHU216HW,2013-03-14 19:30:00,
2013-03-14 15:35:00,53.6,23.8,30.15,NW,315,0.2,0.2,31,0.00,,,0.00,WUHU216HW,2013-03-14 19:35:00,
2013-03-14 15:59:00,54.0,24.0,30.14,NNW,338,3.6,3.6,31,0.00,,,0.00,WUHU216HW,2013-03-14 19:59:00,
2013-03-14 16:00:00,54.0,24.0,30.14,NNW,338,3.6,3.6,31,0.00,,,0.00,WUHU216HW,2013-03-14 20:00:00,
2013-03-14 16:05:00,54.0,24.0,30.14,NNW,338,3.6,3.6,31,0.00,,,0.00,WUHU216HW,2013-03-14 20:05:00,
2013-03-14 16:30:00,55.1,24.2,30.13,SW,225,1.3,1.3,30,0.00,,,0.00,WUHU216HW,2013-03-14 20:30:00,
2013-03-14 16:35:00,55.1,24.2,30.13,SW,225,1.3,1.3,30,0.00,,,0.00,WUHU216HW,2013-03-14 20:35:00,
2013-03-14 16:59:00,54.7,23.0,30.12,NW,315,3.6,3.6,29,0.00,,,0.00,WUHU216HW,2013-03-14 20:59:00,
2013-03-14 17:00:00,54.7,23.0,30.12,NW,315,3.6,3.6,29,0.00,,,0.00,WUHU216HW,2013-03-14 21:00:00,
2013-03-14 17:05:00,54.7,23.0,30.12,NW,315,3.6,3.6,29,0.00,,,0.00,WUHU216HW,2013-03-14 21:05:00,
2013-03-14 17:30:00,55.1,23.2,30.11,NNW,338,5.8,5.8,29,0.00,,,0.00,WUHU216HW,2013-03-14 21:30:00,
2013-03-14 17:35:00,55.1,23.2,30.11,NNW,338,5.8,5.8,29,0.00,,,0.00,WUHU216HW,2013-03-14 21:35:00,
2013-03-14 17:59:00,55.4,22.6,30.11,West,270,2.0,2.0,28,0.00,,,0.00,WUHU216HW,2013-03-14 21:59:00,
2013-03-14 18:00:00,55.4,22.6,30.11,West,270,2.0,2.0,28,0.00,,,0.00,WUHU216HW,2013-03-14 22:00:00,
2013-03-14 18:05:00,55.4,22.6,30.11,West,270,2.0,2.0,28,0.00,,,0.00,WUHU216HW,2013-03-14 22:05:00,
2013-03-14 18:30:00,55.3,24.3,30.11,North,0,0.2,0.2,30,0.00,,,0.00,WUHU216HW,2013-03-14 22:30:00,
2013-03-14 18:35:00,55.3,24.3,30.11,North,0,0.2,0.2,30,0.00,,,0.00,WUHU216HW,2013-03-14 22:35:00,
2013-03-14 18:59:00,53.3,24.1,30.12,WSW,248,1.3,1.3,32,0.00,,,0.00,WUHU216HW,2013-03-14 22:59:00,
2013-03-14 19:00:00,53.3,24.1,30.12,WSW,248,1.3,1.3,32,0.00,,,0.00,WUHU216HW,2013-03-14 23:00:00,
2013-03-14 19:05:00,53.3,24.1,30.12,WSW,248,1.3,1.3,32,0.00,,,0.00,WUHU216HW,2013-03-14 23:05:00,
2013-03-14 19:30:00,50.4,24.2,30.13,SW,225,0.4,0.4,36,0.00,,,0.00,WUHU216HW,2013-03-14 23:30:00,
2013-03-14 19:35:00,50.4,24.2,30.13,SW,225,0.4,0.4,36,0.00,,,0.00,WUHU216HW,2013-03-14 23:35:00,
2013-03-14 19:59:00,47.7,23.9,30.13,WSW,248,0.4,0.4,39,0.00,,,0.00,WUHU216HW,2013-03-14 23:59:00,
2013-03-14 20:00:00,47.7,23.9,30.13,WSW,248,0.4,0.4,39,0.00,,,0.00,WUHU216HW,2013-03-15 00:00:00,
2013-03-14 20:05:00,47.7,23.9,30.13,WSW,248,0.4,0.4,39,0.00,,,0.00,WUHU216HW,2013-03-15 00:05:00,
2013-03-14 20:30:00,45.2,24.4,30.13,WSW,248,0.4,0.4,44,0.00,,,0.00,WUHU216HW,2013-03-15 00:30:00,
2013-03-14 20:35:00,45.2,24.4,30.13,WSW,248,0.4,0.4,44,0.00,,,0.00,WUHU216HW,2013-03-15 00:35:00,
2013-03-14 20:59:00,43.0,24.7,30.13,West,270,0.7,0.7,48,0.00,,,0.00,WUHU216HW,2013-03-15 00:59:00,
2013-03-14 21:00:00,43.0,24.7,30.13,West,270,0.7,0.7,48,0.00,,,0.00,WUHU216HW,2013-03-15 01:00:00,
2013-03-14 21:05:00,43.0,24.7,30.13,West,270,0.7,0.7,48,0.00,,,0.00,WUHU216HW,2013-03-15 01:05:00,
2013-03-14 21:30:00,41.6,24.8,30.14,WSW,248,0.7,0.7,51,0.00,,,0.00,WUHU216HW,2013-03-15 01:30:00,
2013-03-14 21:35:00,41.6,24.8,30.14,WSW,248,0.7,0.7,51,0.00,,,0.00,WUHU216HW,2013-03-15 01:35:00,
2013-03-14 21:59:00,40.3,24.5,30.14,WSW,248,0.4,0.4,53,0.00,,,0.00,WUHU216HW,2013-03-15 01:59:00,
2013-03-14 22:00:00,40.3,24.5,30.14,WSW,248,0.4,0.4,53,0.00,,,0.00,WUHU216HW,2013-03-15 02:00:00,
2013-03-14 22:05:00,40.3,24.5,30.14,WSW,248,0.4,0.4,53,0.00,,,0.00,WUHU216HW,2013-03-15 02:05:00,
2013-03-14 22:30:00,39.2,24.8,30.14,SW,225,0.4,0.4,56,0.00,,,0.00,WUHU216HW,2013-03-15 02:30:00,
2013-03-14 22:35:00,39.2,24.8,30.14,SW,225,0.4,0.4,56,0.00,,,0.00,WUHU216HW,2013-03-15 02:35:00,
2013-03-14 22:59:00,38.0,24.9,30.14,SW,225,0.2,0.2,59,0.00,,,0.00,WUHU216HW,2013-03-15 02:59:00,
2013-03-14 23:00:00,38.0,24.9,30.14,SW,225,0.2,0.2,59,0.00,,,0.00,WUHU216HW,2013-03-15 03:00:00,
2013-03-14 23:05:00,38.0,24.9,30.14,SW,225,0.2,0.2,59,0.00,,,0.00,WUHU216HW,2013-03-15 03:05:00,